Year,Month,Day,Hour,Minute,Value (Times are PST for insolation in W/m^2)
2007,08,20,00,00,0.00
2007,08,20,00,01,0.00
2007,08,20,00,02,0.00
2007,08,20,00,03,0.00
2007,08,20,00,04,0.00
2007,08,20,00,05,0.00
2007,08,20,00,06,0.00
2007,08,20,00,07,0.00
2007,08,20,00,08,0.00
2007,08,20,00,09,0.00
2007,08,20,00,10,0.00
2007,08,20,00,11,0.00
2007,08,20,00,12,0.00
2007,08,20,00,13,0.00
2007,08,20,01,02,0.00
2007,08,20,01,03,0.00
2007,08,20,01,04,0.00
2007,08,20,01,05,0.00
2007,08,20,01,06,0.00
2007,08,20,01,07,0.00
2007,08,20,01,08,0.00
2007,08,20,01,09,0.00
2007,08,20,01,10,0.00
2007,08,20,01,11,0.00
2007,08,20,01,12,0.00
2007,08,20,01,13,0.00
2007,08,20,01,14,0.00
2007,08,20,01,15,0.00
2007,08,20,01,16,0.00
2007,08,20,01,17,0.00
2007,08,20,01,18,0.00
2007,08,20,01,19,0.00
2007,08,20,01,20,0.00
2007,08,20,01,21,0.00
2007,08,20,01,22,0.00
2007,08,20,01,23,0.00
2007,08,20,01,24,0.00
2007,08,20,01,25,0.00
2007,08,20,01,26,0.00
2007,08,20,01,27,0.00
2007,08,20,01,28,0.00
2007,08,20,01,29,0.00
2007,08,20,01,30,0.00
2007,08,20,01,31,0.00
2007,08,20,01,32,0.00
2007,08,20,01,33,0.00
2007,08,20,01,34,0.00
2007,08,20,01,35,0.00
2007,08,20,01,36,0.00
2007,08,20,01,37,0.00
2007,08,20,01,38,0.00
2007,08,20,01,39,0.00
2007,08,20,01,40,0.00
2007,08,20,01,41,0.00
2007,08,20,01,42,0.00
2007,08,20,01,43,0.00
2007,08,20,01,44,0.00
2007,08,20,01,45,0.00
2007,08,20,01,46,0.00
2007,08,20,01,47,0.00
2007,08,20,01,48,0.00
2007,08,20,01,49,0.00
2007,08,20,01,50,0.00
2007,08,20,01,51,0.00
2007,08,20,01,52,0.00
2007,08,20,01,53,0.00
2007,08,20,01,54,0.00
2007,08,20,01,55,0.00
2007,08,20,01,56,0.00
2007,08,20,01,57,0.00
2007,08,20,01,58,0.00
2007,08,20,01,59,0.00
2007,08,20,02,00,0.00
2007,08,20,02,01,0.00
2007,08,20,02,02,0.00
2007,08,20,02,03,0.00
2007,08,20,02,04,0.00
2007,08,20,02,05,0.00
2007,08,20,02,06,0.00
2007,08,20,02,07,0.00
2007,08,20,02,08,0.00
2007,08,20,02,09,0.00
2007,08,20,02,10,0.00
2007,08,20,02,11,0.00
2007,08,20,02,12,0.00
2007,08,20,02,13,0.00
2007,08,20,02,14,0.00
2007,08,20,02,15,0.00
2007,08,20,02,16,0.00
2007,08,20,02,17,0.00
2007,08,20,02,18,0.00
2007,08,20,02,19,0.00
2007,08,20,02,20,0.00
2007,08,20,02,21,0.00
2007,08,20,02,22,0.00
2007,08,20,02,23,0.00
2007,08,20,02,24,0.00
2007,08,20,02,25,0.00
2007,08,20,02,26,0.00
2007,08,20,02,27,0.00
2007,08,20,02,28,0.00
2007,08,20,02,29,0.00
2007,08,20,02,30,0.00
2007,08,20,02,31,0.00
2007,08,20,02,32,0.00
2007,08,20,02,33,0.00
2007,08,20,02,34,0.00
2007,08,20,02,35,0.00
2007,08,20,02,36,0.00
2007,08,20,02,37,0.00
2007,08,20,02,38,0.00
2007,08,20,02,39,0.00
2007,08,20,02,40,0.00
2007,08,20,02,41,0.00
2007,08,20,02,42,0.00
2007,08,20,02,43,0.00
2007,08,20,02,44,0.00
2007,08,20,02,45,0.00
2007,08,20,02,46,0.00
2007,08,20,02,47,0.00
2007,08,20,02,48,0.00
2007,08,20,02,49,0.00
2007,08,20,02,50,0.00
2007,08,20,02,51,0.00
2007,08,20,02,52,0.00
2007,08,20,02,53,0.00
2007,08,20,02,54,0.00
2007,08,20,02,55,0.00
2007,08,20,02,56,0.00
2007,08,20,02,57,0.00
2007,08,20,02,58,0.00
2007,08,20,02,59,0.00
2007,08,20,03,00,0.00
2007,08,20,03,01,0.00
2007,08,20,03,02,0.00
2007,08,20,03,03,0.00
2007,08,20,03,04,0.00
2007,08,20,03,05,0.00
2007,08,20,03,06,0.00
2007,08,20,03,07,0.00
2007,08,20,03,08,0.00
2007,08,20,03,09,0.00
2007,08,20,03,10,0.00
2007,08,20,03,11,0.00
2007,08,20,03,12,0.00
2007,08,20,03,13,0.00
2007,08,20,03,14,0.00
2007,08,20,03,15,0.00
2007,08,20,03,16,0.00
2007,08,20,03,17,0.00
2007,08,20,03,18,0.00
2007,08,20,03,19,0.00
2007,08,20,03,20,0.00
2007,08,20,03,21,0.00
2007,08,20,03,22,0.00
2007,08,20,03,23,0.00
2007,08,20,03,24,0.00
2007,08,20,03,25,0.00
2007,08,20,03,26,0.00
2007,08,20,03,27,0.00
2007,08,20,03,28,0.00
2007,08,20,03,29,0.00
2007,08,20,03,30,0.00
2007,08,20,03,31,0.00
2007,08,20,03,32,0.00
2007,08,20,03,33,0.00
2007,08,20,03,34,0.00
2007,08,20,03,35,0.00
2007,08,20,03,36,0.00
2007,08,20,03,37,0.00
2007,08,20,03,38,0.00
2007,08,20,03,39,0.00
2007,08,20,03,40,0.00
2007,08,20,03,41,0.00
2007,08,20,03,42,0.00
2007,08,20,03,43,0.00
2007,08,20,03,44,0.00
2007,08,20,03,45,0.00
2007,08,20,03,46,0.00
2007,08,20,03,47,0.00
2007,08,20,03,48,0.00
2007,08,20,03,49,0.00
2007,08,20,03,50,0.00
2007,08,20,03,51,0.00
2007,08,20,03,52,0.00
2007,08,20,03,53,0.00
2007,08,20,03,54,0.00
2007,08,20,03,55,0.00
2007,08,20,03,56,0.00
2007,08,20,03,57,0.00
2007,08,20,03,58,0.00
2007,08,20,03,59,0.00
2007,08,20,04,00,0.00
2007,08,20,04,01,0.00
2007,08,20,04,02,0.00
2007,08,20,04,03,0.00
2007,08,20,04,04,0.00
2007,08,20,04,05,0.00
2007,08,20,04,06,0.00
2007,08,20,04,07,0.00
2007,08,20,04,08,0.00
2007,08,20,04,09,0.00
2007,08,20,04,10,0.00
2007,08,20,04,11,0.00
2007,08,20,04,12,0.00
2007,08,20,04,13,0.00
2007,08,20,04,14,0.00
2007,08,20,04,15,0.00
2007,08,20,04,16,0.00
2007,08,20,04,17,0.00
2007,08,20,04,18,0.00
2007,08,20,04,19,0.00
2007,08,20,04,20,0.00
2007,08,20,04,21,0.00
2007,08,20,04,22,0.00
2007,08,20,04,23,0.00
2007,08,20,04,24,0.00
2007,08,20,04,25,0.00
2007,08,20,04,26,0.00
2007,08,20,04,27,0.00
2007,08,20,04,28,0.00
2007,08,20,04,29,0.00
2007,08,20,04,30,0.00
2007,08,20,04,31,0.00
2007,08,20,04,32,0.00
2007,08,20,04,33,0.00
2007,08,20,04,34,0.00
2007,08,20,04,35,0.00
2007,08,20,04,36,0.00
2007,08,20,04,37,0.00
2007,08,20,04,38,0.00
2007,08,20,04,39,0.00
2007,08,20,04,40,0.00
2007,08,20,04,41,0.00
2007,08,20,04,42,0.00
2007,08,20,04,43,0.00
2007,08,20,04,44,0.00
2007,08,20,04,45,0.00
2007,08,20,04,46,0.00
2007,08,20,04,47,0.00
2007,08,20,04,48,0.00
2007,08,20,04,49,0.00
2007,08,20,04,50,0.00
2007,08,20,04,51,0.00
2007,08,20,04,52,0.00
2007,08,20,04,53,0.00
2007,08,20,04,54,0.00
2007,08,20,04,55,0.00
2007,08,20,04,56,0.00
2007,08,20,04,57,0.00
2007,08,20,04,58,0.00
2007,08,20,04,59,0.00
2007,08,20,05,00,0.00
2007,08,20,05,01,0.00
2007,08,20,05,02,0.00
2007,08,20,05,03,0.00
2007,08,20,05,04,0.00
2007,08,20,05,05,0.00
2007,08,20,05,06,0.00
2007,08,20,05,07,0.00
2007,08,20,05,08,0.00
2007,08,20,05,09,0.00
2007,08,20,05,10,0.00
2007,08,20,05,11,0.00
2007,08,20,05,12,0.00
2007,08,20,05,13,0.00
2007,08,20,05,14,0.00
2007,08,20,05,15,0.00
2007,08,20,05,16,0.00
2007,08,20,05,17,0.00
2007,08,20,05,18,0.00
2007,08,20,05,19,0.00
2007,08,20,05,20,0.00
2007,08,20,05,21,0.00
2007,08,20,05,22,0.00
2007,08,20,05,23,0.00
2007,08,20,05,24,0.00
2007,08,20,05,25,0.00
2007,08,20,05,26,0.00
2007,08,20,05,27,0.00
2007,08,20,05,28,0.00
2007,08,20,05,29,0.00
2007,08,20,05,30,0.00
2007,08,20,05,31,0.00
2007,08,20,05,32,0.00
2007,08,20,05,33,0.00
2007,08,20,05,34,0.00
2007,08,20,05,35,0.00
2007,08,20,05,36,0.00
2007,08,20,05,37,0.00
2007,08,20,05,38,0.00
2007,08,20,05,39,0.00
2007,08,20,05,40,0.00
2007,08,20,05,41,0.00
2007,08,20,05,42,0.00
2007,08,20,05,43,0.00
2007,08,20,05,44,0.00
2007,08,20,05,45,0.00
2007,08,20,05,46,0.00
2007,08,20,05,47,0.00
2007,08,20,05,48,0.00
2007,08,20,05,49,0.00
2007,08,20,05,50,0.00
2007,08,20,05,51,0.00
2007,08,20,05,52,0.00
2007,08,20,05,53,0.00
2007,08,20,05,54,0.00
2007,08,20,05,55,0.00
2007,08,20,05,56,0.00
2007,08,20,05,57,0.00
2007,08,20,05,58,0.00
2007,08,20,05,59,0.00
2007,08,20,06,00,0.00
2007,08,20,06,01,0.00
2007,08,20,06,02,0.00
2007,08,20,06,03,0.00
2007,08,20,06,04,0.00
2007,08,20,06,05,0.00
2007,08,20,06,06,0.00
2007,08,20,06,07,0.00
2007,08,20,06,08,0.00
2007,08,20,06,09,0.00
2007,08,20,06,10,0.00
2007,08,20,06,11,0.00
2007,08,20,06,12,0.00
2007,08,20,06,13,0.00
2007,08,20,06,14,0.00
2007,08,20,06,15,0.00
2007,08,20,06,16,0.00
2007,08,20,06,17,0.00
2007,08,20,06,18,0.00
2007,08,20,06,19,0.00
2007,08,20,06,20,0.00
2007,08,20,06,21,0.00
2007,08,20,06,22,0.00
2007,08,20,06,23,0.00
2007,08,20,06,24,0.00
2007,08,20,06,25,0.00
2007,08,20,06,26,1.50
2007,08,20,06,27,5.00
2007,08,20,06,28,5.00
2007,08,20,06,29,5.00
2007,08,20,06,30,5.00
2007,08,20,06,31,5.00
2007,08,20,06,32,5.00
2007,08,20,06,33,5.00
2007,08,20,06,34,5.00
2007,08,20,06,35,5.00
2007,08,20,06,36,6.50
2007,08,20,06,37,7.00
2007,08,20,06,38,7.00
2007,08,20,06,39,8.70
2007,08,20,06,40,9.00
2007,08,20,06,41,9.00
2007,08,20,06,42,9.00
2007,08,20,06,43,9.10
2007,08,20,06,44,11.00
2007,08,20,06,45,11.00
2007,08,20,06,46,11.00
2007,08,20,06,47,11.00
2007,08,20,06,48,11.00
2007,08,20,06,49,11.00
2007,08,20,06,50,11.40
2007,08,20,06,51,12.00
2007,08,20,06,52,12.80
2007,08,20,06,53,14.00
2007,08,20,06,54,14.90
2007,08,20,06,55,16.00
2007,08,20,06,56,17.20
2007,08,20,06,57,18.60
2007,08,20,06,58,20.40
2007,08,20,06,59,22.50
2007,08,20,07,00,24.50
2007,08,20,07,01,25.80
2007,08,20,07,02,27.70
2007,08,20,07,03,28.00
2007,08,20,07,04,26.20
2007,08,20,07,05,26.00
2007,08,20,07,06,26.00
2007,08,20,07,07,25.00
2007,08,20,07,08,24.70
2007,08,20,07,09,23.00
2007,08,20,07,10,23.00
2007,08,20,07,11,23.00
2007,08,20,07,12,23.00
2007,08,20,07,13,23.00
2007,08,20,07,14,23.00
2007,08,20,07,15,23.00
2007,08,20,07,16,23.00
2007,08,20,07,17,24.00
2007,08,20,07,18,25.50
2007,08,20,07,19,27.20
2007,08,20,07,20,29.20
2007,08,20,07,21,30.00
2007,08,20,07,22,32.20
2007,08,20,07,23,34.60
2007,08,20,07,24,35.00
2007,08,20,07,25,35.00
2007,08,20,07,26,33.20
2007,08,20,07,27,33.00
2007,08,20,07,28,33.00
2007,08,20,07,29,35.10
2007,08,20,07,30,37.20
2007,08,20,07,31,39.30
2007,08,20,07,32,42.80
2007,08,20,07,33,47.50
2007,08,20,07,34,49.50
2007,08,20,07,35,51.60
2007,08,20,07,36,53.00
2007,08,20,07,37,52.20
2007,08,20,07,38,51.00
2007,08,20,07,39,50.00
2007,08,20,07,40,49.00
2007,08,20,07,41,49.00
2007,08,20,07,42,49.00
2007,08,20,07,43,50.30
2007,08,20,07,44,52.30
2007,08,20,07,45,53.00
2007,08,20,07,46,53.80
2007,08,20,07,47,55.70
2007,08,20,07,48,56.00
2007,08,20,07,49,54.20
2007,08,20,07,50,53.10
2007,08,20,07,51,49.20
2007,08,20,07,52,47.00
2007,08,20,07,53,45.80
2007,08,20,07,54,43.70
2007,08,20,07,55,41.60
2007,08,20,07,56,40.00
2007,08,20,07,57,39.70
2007,08,20,07,58,39.00
2007,08,20,07,59,39.30
2007,08,20,08,00,40.00
2007,08,20,08,01,40.90
2007,08,20,08,02,43.90
2007,08,20,08,03,46.50
2007,08,20,08,04,49.20
2007,08,20,08,05,52.70
2007,08,20,08,06,55.20
2007,08,20,08,07,58.70
2007,08,20,08,08,63.50
2007,08,20,08,09,68.80
2007,08,20,08,10,70.00
2007,08,20,08,11,81.10
2007,08,20,08,12,87.20
2007,08,20,08,13,94.30
2007,08,20,08,14,98.00
2007,08,20,08,15,102.00
2007,08,20,08,16,102.00
2007,08,20,08,17,101.70
2007,08,20,08,18,99.00
2007,08,20,08,19,94.20
2007,08,20,08,20,90.80
2007,08,20,08,21,89.40
2007,08,20,08,22,88.00
2007,08,20,08,23,87.30
2007,08,20,08,24,86.80
2007,08,20,08,25,88.00
2007,08,20,08,26,89.00
2007,08,20,08,27,90.50
2007,08,20,08,28,92.20
2007,08,20,08,29,95.60
2007,08,20,08,30,97.70
2007,08,20,08,31,100.80
2007,08,20,08,32,103.50
2007,08,20,08,33,104.80
2007,08,20,08,34,106.70
2007,08,20,08,35,107.00
2007,08,20,08,36,108.80
2007,08,20,08,37,110.90
2007,08,20,08,38,108.90
2007,08,20,08,39,106.70
2007,08,20,08,40,103.80
2007,08,20,08,41,102.30
2007,08,20,08,42,104.20
2007,08,20,08,43,106.50
2007,08,20,08,44,111.60
2007,08,20,08,45,113.00
2007,08,20,08,46,112.20
2007,08,20,08,47,110.10
2007,08,20,08,48,107.10
2007,08,20,08,49,103.50
2007,08,20,08,50,102.00
2007,08,20,08,51,102.00
2007,08,20,08,52,103.80
2007,08,20,08,53,107.60
2007,08,20,08,54,111.90
2007,08,20,08,55,116.80
2007,08,20,08,56,120.40
2007,08,20,08,57,122.60
2007,08,20,08,58,121.30
2007,08,20,08,59,121.00
2007,08,20,09,00,121.00
2007,08,20,09,01,122.90
2007,08,20,09,02,120.90
2007,08,20,09,03,118.10
2007,08,20,09,04,107.60
2007,08,20,09,05,110.20
2007,08,20,09,06,106.20
2007,08,20,09,07,103.40
2007,08,20,09,08,101.30
2007,08,20,09,09,100.00
2007,08,20,09,10,100.00
2007,08,20,09,11,100.00
2007,08,20,09,12,100.00
2007,08,20,09,13,102.20
2007,08,20,09,14,105.80
2007,08,20,09,15,109.50
2007,08,20,09,16,112.90
2007,08,20,09,17,115.40
2007,08,20,09,18,117.60
2007,08,20,09,19,119.60
2007,08,20,09,20,122.60
2007,08,20,09,21,128.90
2007,08,20,09,22,138.10
2007,08,20,09,23,145.60
2007,08,20,09,24,145.80
2007,08,20,09,25,141.30
2007,08,20,09,26,134.30
2007,08,20,09,27,127.20
2007,08,20,09,28,122.40
2007,08,20,09,29,119.00
2007,08,20,09,30,115.40
2007,08,20,09,31,114.00
2007,08,20,09,32,114.00
2007,08,20,09,33,114.00
2007,08,20,09,34,114.90
2007,08,20,09,35,116.00
2007,08,20,09,36,114.90
2007,08,20,09,37,113.40
2007,08,20,09,38,111.70
2007,08,20,09,39,111.00
2007,08,20,09,40,112.40
2007,08,20,09,41,115.40
2007,08,20,09,42,120.00
2007,08,20,09,43,124.40
2007,08,20,09,44,129.50
2007,08,20,09,45,131.80
2007,08,20,09,46,132.00
2007,08,20,09,47,129.90
2007,08,20,09,48,128.00
2007,08,20,09,49,128.00
2007,08,20,09,50,128.60
2007,08,20,09,51,132.00
2007,08,20,09,52,132.50
2007,08,20,09,53,133.40
2007,08,20,09,54,130.60
2007,08,20,09,55,126.80
2007,08,20,09,56,124.10
2007,08,20,09,57,122.00
2007,08,20,09,58,120.50
2007,08,20,09,59,119.00
2007,08,20,10,00,118.00
2007,08,20,10,01,119.90
2007,08,20,10,02,123.60
2007,08,20,10,03,129.90
2007,08,20,10,04,139.10
2007,08,20,10,05,146.60
2007,08,20,10,06,153.90
2007,08,20,10,07,161.30
2007,08,20,10,08,170.10
2007,08,20,10,09,177.60
2007,08,20,10,10,185.00
2007,08,20,10,11,190.00
2007,08,20,10,12,189.20
2007,08,20,10,13,183.60
2007,08,20,10,14,173.80
2007,08,20,10,15,163.30
2007,08,20,10,16,156.50
2007,08,20,10,17,152.40
2007,08,20,10,18,151.70
2007,08,20,10,19,154.20
2007,08,20,10,20,159.10
2007,08,20,10,21,167.20
2007,08,20,10,22,176.50
2007,08,20,10,23,189.10
2007,08,20,10,24,203.70
2007,08,20,10,25,219.90
2007,08,20,10,26,236.40
2007,08,20,10,27,253.60
2007,08,20,10,28,268.20
2007,08,20,10,29,271.00
2007,08,20,10,30,296.50
2007,08,20,10,31,313.60
2007,08,20,10,32,333.00
2007,08,20,10,33,360.00
2007,08,20,10,34,378.10
2007,08,20,10,35,377.70
2007,08,20,10,36,364.00
2007,08,20,10,37,362.20
2007,08,20,10,38,352.00
2007,08,20,10,39,339.50
2007,08,20,10,40,328.90
2007,08,20,10,41,320.20
2007,08,20,10,42,309.40
2007,08,20,10,43,292.50
2007,08,20,10,44,272.50
2007,08,20,10,45,252.10
2007,08,20,10,46,235.00
2007,08,20,10,47,223.80
2007,08,20,10,48,219.10
2007,08,20,10,49,215.30
2007,08,20,10,50,211.80
2007,08,20,10,51,203.80
2007,08,20,10,52,191.80
2007,08,20,10,53,180.20
2007,08,20,10,54,171.80
2007,08,20,10,55,167.20
2007,08,20,10,56,169.10
2007,08,20,10,57,171.50
2007,08,20,10,58,176.50
2007,08,20,10,59,182.10
2007,08,20,11,00,189.40
2007,08,20,11,01,196.10
2007,08,20,11,02,201.20
2007,08,20,11,03,206.40
2007,08,20,11,04,212.80
2007,08,20,11,05,218.80
2007,08,20,11,06,225.70
2007,08,20,11,07,230.50
2007,08,20,11,08,232.00
2007,08,20,11,09,230.90
2007,08,20,11,10,228.20
2007,08,20,11,11,224.40
2007,08,20,11,12,219.50
2007,08,20,11,13,216.50
2007,08,20,11,14,213.60
2007,08,20,11,15,211.30
2007,08,20,11,16,209.30
2007,08,20,11,17,207.20
2007,08,20,11,18,207.00
2007,08,20,11,19,211.10
2007,08,20,11,20,214.20
2007,08,20,11,21,216.50
2007,08,20,11,22,221.90
2007,08,20,11,23,228.00
2007,08,20,11,24,233.00
2007,08,20,11,25,238.10
2007,08,20,11,26,244.00
2007,08,20,11,27,247.60
2007,08,20,11,28,250.00
2007,08,20,11,29,250.00
2007,08,20,11,30,250.00
2007,08,20,11,31,250.00
2007,08,20,11,32,250.60
2007,08,20,11,33,251.00
2007,08,20,11,34,252.40
2007,08,20,11,35,254.40
2007,08,20,11,36,257.10
2007,08,20,11,37,259.50
2007,08,20,11,38,263.40
2007,08,20,11,39,266.50
2007,08,20,11,40,271.50
2007,08,20,11,41,275.80
2007,08,20,11,42,279.10
2007,08,20,11,43,285.50
2007,08,20,11,44,290.70
2007,08,20,11,45,297.80
2007,08,20,11,46,302.40
2007,08,20,11,47,303.50
2007,08,20,11,48,302.00
2007,08,20,11,49,304.10
2007,08,20,11,50,310.00
2007,08,20,11,51,313.80
2007,08,20,11,52,312.50
2007,08,20,11,53,307.50
2007,08,20,11,54,307.60
2007,08,20,11,55,309.00
2007,08,20,11,56,304.20
2007,08,20,11,57,295.10
2007,08,20,11,58,289.20
2007,08,20,11,59,290.90
2007,08,20,12,00,295.80
2007,08,20,12,01,298.60
2007,08,20,12,02,299.00
2007,08,20,12,03,299.00
2007,08,20,12,04,290.00
2007,08,20,12,05,290.20
2007,08,20,12,06,294.00
2007,08,20,12,07,294.40
2007,08,20,12,08,297.30
2007,08,20,12,09,299.40
2007,08,20,12,10,301.20
2007,08,20,12,11,303.20
2007,08,20,12,12,306.80
2007,08,20,12,13,309.30
2007,08,20,12,14,313.00
2007,08,20,12,15,317.40
2007,08,20,12,16,325.00
2007,08,20,12,17,337.90
2007,08,20,12,18,351.10
2007,08,20,12,19,364.20
2007,08,20,12,20,378.10
2007,08,20,12,21,399.30
2007,08,20,12,22,426.50
2007,08,20,12,23,460.30
2007,08,20,12,24,507.30
2007,08,20,12,25,594.10
2007,08,20,12,26,599.00
2007,08,20,12,27,742.00
2007,08,20,12,28,732.10
2007,08,20,12,29,566.40
2007,08,20,12,30,592.10
2007,08,20,12,31,578.00
2007,08,20,12,32,578.00
2007,08,20,12,33,578.00
2007,08,20,12,34,533.20
2007,08,20,12,35,425.40
2007,08,20,12,36,399.70
2007,08,20,12,37,376.80
2007,08,20,12,38,360.00
2007,08,20,12,39,368.10
2007,08,20,12,40,387.50
2007,08,20,12,41,410.80
2007,08,20,12,42,432.70
2007,08,20,12,43,449.80
2007,08,20,12,44,460.20
2007,08,20,12,45,475.20
2007,08,20,12,46,484.80
2007,08,20,12,47,488.90
2007,08,20,12,48,493.20
2007,08,20,12,49,501.00
2007,08,20,12,50,509.10
2007,08,20,12,51,552.00
2007,08,20,12,52,552.00
2007,08,20,12,53,552.00
2007,08,20,12,54,553.00
2007,08,20,12,55,556.90
2007,08,20,12,56,548.20
2007,08,20,12,57,540.90
2007,08,20,12,58,524.30
2007,08,20,12,59,494.50
2007,08,20,13,00,460.20
2007,08,20,13,01,430.00
2007,08,20,13,02,415.90
2007,08,20,13,03,402.80
2007,08,20,13,04,383.90
2007,08,20,13,05,366.80
2007,08,20,13,06,364.00
2007,08,20,13,07,369.40
2007,08,20,13,08,382.70
2007,08,20,13,09,397.40
2007,08,20,13,10,407.50
2007,08,20,13,11,415.70
2007,08,20,13,12,432.00
2007,08,20,13,13,451.00
2007,08,20,13,14,459.50
2007,08,20,13,15,468.90
2007,08,20,13,16,477.50
2007,08,20,13,17,492.30
2007,08,20,13,18,519.80
2007,08,20,13,19,560.00
2007,08,20,13,20,599.70
2007,08,20,13,21,583.30
2007,08,20,13,22,596.10
2007,08,20,13,23,619.00
2007,08,20,13,24,619.00
2007,08,20,13,25,619.00
2007,08,20,13,26,619.00
2007,08,20,13,27,619.00
2007,08,20,13,28,619.00
2007,08,20,13,29,888.80
2007,08,20,13,30,1069.70
2007,08,20,13,31,1029.20
2007,08,20,13,32,1083.30
2007,08,20,13,33,1009.80
2007,08,20,13,34,1005.00
2007,08,20,13,35,1005.00
2007,08,20,13,36,801.60
2007,08,20,13,37,816.00
2007,08,20,13,38,832.20
2007,08,20,13,39,1094.30
2007,08,20,13,40,1116.00
2007,08,20,13,41,1116.00
2007,08,20,13,42,1120.70
2007,08,20,13,43,1121.10
2007,08,20,13,44,1090.00
2007,08,20,13,45,1067.70
2007,08,20,13,46,1037.00
2007,08,20,13,47,1037.00
2007,08,20,13,48,1037.00
2007,08,20,13,49,712.80
2007,08,20,13,50,418.00
2007,08,20,13,51,437.10
2007,08,20,13,52,453.70
2007,08,20,13,53,529.30
2007,08,20,13,54,609.20
2007,08,20,13,55,621.00
2007,08,20,13,56,621.00
2007,08,20,13,57,943.10
2007,08,20,13,58,977.00
2007,08,20,13,59,1060.00
2007,08,20,14,00,1000.00
2007,08,20,14,01,971.70
2007,08,20,14,02,749.00
2007,08,20,14,03,775.10
2007,08,20,14,04,748.00
2007,08,20,14,05,749.00
2007,08,20,14,06,798.70
2007,08,20,14,07,814.00
2007,08,20,14,08,814.00
2007,08,20,14,09,699.20
2007,08,20,14,10,564.30
2007,08,20,14,11,625.80
2007,08,20,14,12,632.20
2007,08,20,14,13,654.40
2007,08,20,14,14,671.00
2007,08,20,14,15,671.00
2007,08,20,14,16,671.00
2007,08,20,14,17,624.90
2007,08,20,14,18,627.00
2007,08,20,14,19,623.70
2007,08,20,14,20,694.00
2007,08,20,14,21,694.00
2007,08,20,14,22,694.00
2007,08,20,14,23,682.30
2007,08,20,14,24,460.00
2007,08,20,14,25,453.20
2007,08,20,14,26,465.10
2007,08,20,14,27,485.00
2007,08,20,14,28,502.50
2007,08,20,14,29,522.00
2007,08,20,14,30,501.50
2007,08,20,14,31,455.20
2007,08,20,14,32,428.60
2007,08,20,14,33,413.00
2007,08,20,14,34,402.60
2007,08,20,14,35,391.20
2007,08,20,14,36,394.60
2007,08,20,14,37,400.80
2007,08,20,14,38,409.90
2007,08,20,14,39,418.50
2007,08,20,14,40,423.30
2007,08,20,14,41,422.50
2007,08,20,14,42,413.50
2007,08,20,14,43,397.90
2007,08,20,14,44,388.50
2007,08,20,14,45,394.00
2007,08,20,14,46,407.50
2007,08,20,14,47,413.00
2007,08,20,14,48,412.70
2007,08,20,14,49,409.60
2007,08,20,14,50,407.20
2007,08,20,14,51,403.80
2007,08,20,14,52,405.30
2007,08,20,14,53,414.00
2007,08,20,14,54,432.70
2007,08,20,14,55,450.50
2007,08,20,14,56,449.40
2007,08,20,14,57,445.80
2007,08,20,14,58,444.00
2007,08,20,14,59,425.40
2007,08,20,15,00,388.60
2007,08,20,15,01,352.60
2007,08,20,15,02,334.60
2007,08,20,15,03,323.20
2007,08,20,15,04,318.40
2007,08,20,15,05,315.20
2007,08,20,15,06,315.90
2007,08,20,15,07,315.10
2007,08,20,15,08,313.00
2007,08,20,15,09,309.00
2007,08,20,15,10,305.50
2007,08,20,15,11,299.70
2007,08,20,15,12,287.90
2007,08,20,15,13,275.20
2007,08,20,15,14,260.80
2007,08,20,15,15,249.30
2007,08,20,15,16,247.60
2007,08,20,15,17,252.10
2007,08,20,15,18,255.00
2007,08,20,15,19,263.50
2007,08,20,15,20,280.10
2007,08,20,15,21,290.00
2007,08,20,15,22,302.10
2007,08,20,15,23,314.40
2007,08,20,15,24,348.70
2007,08,20,15,25,350.30
2007,08,20,15,26,336.30
2007,08,20,15,27,321.60
2007,08,20,15,28,309.30
2007,08,20,15,29,295.70
2007,08,20,15,30,285.00
2007,08,20,15,31,274.00
2007,08,20,15,32,272.30
2007,08,20,15,33,279.30
2007,08,20,15,34,292.00
2007,08,20,15,35,309.40
2007,08,20,15,36,316.40
2007,08,20,15,37,317.20
2007,08,20,15,38,315.30
2007,08,20,15,39,317.20
2007,08,20,15,40,321.90
2007,08,20,15,41,326.90
2007,08,20,15,42,328.10
2007,08,20,15,43,326.00
2007,08,20,15,44,320.90
2007,08,20,15,45,315.20
2007,08,20,15,46,309.70
2007,08,20,15,47,306.50
2007,08,20,15,48,306.00
2007,08,20,15,49,306.00
2007,08,20,15,50,307.50
2007,08,20,15,51,310.40
2007,08,20,15,52,314.80
2007,08,20,15,53,319.20
2007,08,20,15,54,330.00
2007,08,20,15,55,351.70
2007,08,20,15,56,383.40
2007,08,20,15,57,428.70
2007,08,20,15,58,469.00
2007,08,20,15,59,493.60
2007,08,20,16,00,532.50
2007,08,20,16,01,520.50
2007,08,20,16,02,521.00
2007,08,20,16,03,531.00
2007,08,20,16,04,533.00
2007,08,20,16,05,537.90
2007,08,20,16,06,499.50
2007,08,20,16,07,437.60
2007,08,20,16,08,423.00
2007,08,20,16,09,427.90
2007,08,20,16,10,441.90
2007,08,20,16,11,446.00
2007,08,20,16,12,455.10
2007,08,20,16,13,452.80
2007,08,20,16,14,448.20
2007,08,20,16,15,421.60
2007,08,20,16,16,407.10
2007,08,20,16,17,403.00
2007,08,20,16,18,411.00
2007,08,20,16,19,371.50
2007,08,20,16,20,326.10
2007,08,20,16,21,304.00
2007,08,20,16,22,294.70
2007,08,20,16,23,258.10
2007,08,20,16,24,245.00
2007,08,20,16,25,235.50
2007,08,20,16,26,227.10
2007,08,20,16,27,221.00
2007,08,20,16,28,215.50
2007,08,20,16,29,211.90
2007,08,20,16,30,211.00
2007,08,20,16,31,208.30
2007,08,20,16,32,205.00
2007,08,20,16,33,202.60
2007,08,20,16,34,203.50
2007,08,20,16,35,205.40
2007,08,20,16,36,206.80
2007,08,20,16,37,208.80
2007,08,20,16,38,209.00
2007,08,20,16,39,209.00
2007,08,20,16,40,206.30
2007,08,20,16,41,200.10
2007,08,20,16,42,194.70
2007,08,20,16,43,192.00
2007,08,20,16,44,192.10
2007,08,20,16,45,193.80
2007,08,20,16,46,197.00
2007,08,20,16,47,196.30
2007,08,20,16,48,193.90
2007,08,20,16,49,190.40
2007,08,20,16,50,187.20
2007,08,20,16,51,186.00
2007,08,20,16,52,187.10
2007,08,20,16,53,189.20
2007,08,20,16,54,194.30
2007,08,20,16,55,200.30
2007,08,20,16,56,202.00
2007,08,20,16,57,200.40
2007,08,20,16,58,196.40
2007,08,20,16,59,190.60
2007,08,20,17,00,190.00
2007,08,20,17,01,191.90
2007,08,20,17,02,196.50
2007,08,20,17,03,202.00
2007,08,20,17,04,209.20
2007,08,20,17,05,213.00
2007,08,20,17,06,212.70
2007,08,20,17,07,209.80
2007,08,20,17,08,202.90
2007,08,20,17,09,198.40
2007,08,20,17,10,198.60
2007,08,20,17,11,205.00
2007,08,20,17,12,214.10
2007,08,20,17,13,218.00
2007,08,20,17,14,215.50
2007,08,20,17,15,206.90
2007,08,20,17,16,196.70
2007,08,20,17,17,189.10
2007,08,20,17,18,183.80
2007,08,20,17,19,181.60
2007,08,20,17,20,181.00
2007,08,20,17,21,182.70
2007,08,20,17,22,185.70
2007,08,20,17,23,185.10
2007,08,20,17,24,176.50
2007,08,20,17,25,163.00
2007,08,20,17,26,153.00
2007,08,20,17,27,144.00
2007,08,20,17,28,136.80
2007,08,20,17,29,132.00
2007,08,20,17,30,132.30
2007,08,20,17,31,134.00
2007,08,20,17,32,134.00
2007,08,20,17,33,134.00
2007,08,20,17,34,132.70
2007,08,20,17,35,129.20
2007,08,20,17,36,127.60
2007,08,20,17,37,127.00
2007,08,20,17,38,126.10
2007,08,20,17,39,122.60
2007,08,20,17,40,119.30
2007,08,20,17,41,118.00
2007,08,20,17,42,120.20
2007,08,20,17,43,126.40
2007,08,20,17,44,132.90
2007,08,20,17,45,140.30
2007,08,20,17,46,143.80
2007,08,20,17,47,145.90
2007,08,20,17,48,146.00
2007,08,20,17,49,146.00
2007,08,20,17,50,143.80
2007,08,20,17,51,140.60
2007,08,20,17,52,133.00
2007,08,20,17,53,121.70
2007,08,20,17,54,112.00
2007,08,20,17,55,103.60
2007,08,20,17,56,98.40
2007,08,20,17,57,93.60